Location: Dackenheim
(49.5215°N, 8.1854°E)
Time: 16:16:38
(UTC+00:00)

Cosmos 2237 Rocket - Pass Details

Date: 19 May 2025
Orbit: 834 x 849 km, 71.0° (Epoch: 17 June)

Event Time Altitude Azimuth Distance (km) Brightness Sun altitude
Rises 23:40:47 0° 334° (NNW) 3,399 6.4 -20.4°
Reaches altitude 10° 23:43:45 10° 349° (N) 2,464 5.7 -20.3°
Maximum altitude 23:48:13 23° 41° (NE) 1,704 4.4 -20.3°
Drops below altitude 10° 23:52:41 10° 94° (E) 2,463 4.7 -20.2°
Sets 23:55:38 0° 108° (ESE) 3,397 5.2 -20.1°
